Weather History for KAPN - December, 2014

Change the Weather History Date:

Saturday, December 27, 2014

  Actual Average Record
Temperature  
Mean Temperature 39 °F 22 °F  
Max Temperature 48 °F 29 °F 52 °F (1936)
Min Temperature 30 °F 15 °F -16 °F (2004)
Degree Days  
Heating Degree Days 26 43  
Month to date heating degree days 956 1064  
Since 1 July heating degree days 2889 2887  
Moisture  
Dew Point 35 °F    
Average Humidity 86    
Maximum Humidity 100    
Minimum Humidity 71    
Precipitation  
Precipitation 0.04 in 0.05 in 1.12 in (1942)
Month to date precipitation 1.69 1.54  
Year to date precipitation 34.80 27.95  
Snow  
Snow 0.00 in 0.70 in 14.00 in (1946)
Month to date snowfall 0.5 16.6  
Since 1 July snowfall 16.1 24.7  
Snow Depth 0.00 in    
Sea Level Pressure  
Sea Level Pressure 29.90 in    
Wind  
Wind Speed 10 mph (SSW)    
Max Wind Speed 23 mph    
Max Gust Speed 36 mph    
Visibility 8 miles    
Events Rain , Snow    
T = Trace of Precipitation, MM = Missing Value Source: NWS Daily Summary

Daily Weather History Graph

Daily Weather History Graph

Search for Another Location

Airport or City:

Trip Planner

Search our weather history database for the weather conditions in past years. The results will help you decide how hot, cold, wet, or windy it might be!

Date:

Astronomy

Dec. 27, 2014 Rise Set
Actual Time 8:12 AM EST 4:58 PM EST
Civil Twilight 7:38 AM EST 5:32 PM EST
Nautical Twilight 7:00 AM EST 6:10 PM EST
Astronomical Twilight 6:25 AM EST 6:45 PM EST
Moon 11:43 AM EST (12/27) No Moon Set
Length of Visible Light 9h 54m
Length of Day
8h 46m
Waxing Crescent, 38% of the Moon is Illuminated
Dec 27
Waxing Crescent
Dec 28
First Quarter
Jan 4
Full
Jan 13
Last Quarter
Jan 20
New

Hourly Weather History & Observations

Time (EST) Temp. Windchill Dew Point Humidity Pressure Visibility Wind Dir Wind Speed Gust Speed Precip Events Conditions
12:54 AM 36.0 °F 32.1 °F 33.1 °F 89% 30.08 in 10.0 mi South 4.6 mph - N/A   Overcast
1:54 AM 36.0 °F 32.1 °F 33.1 °F 89% 30.07 in 10.0 mi South 4.6 mph - N/A   Overcast
2:54 AM 36.0 °F 31.1 °F 33.1 °F 89% 30.08 in 10.0 mi South 5.8 mph - N/A   Overcast
3:54 AM 37.0 °F 31.6 °F 33.1 °F 86% 30.07 in 10.0 mi South 6.9 mph - N/A   Overcast
4:54 AM 37.0 °F 33.3 °F 34.0 °F 89% 30.04 in 10.0 mi SE 4.6 mph - N/A   Overcast
5:24 AM 37.0 °F 33.3 °F 34.0 °F 89% 30.00 in 10.0 mi SE 4.6 mph - N/A   Overcast
5:54 AM 36.0 °F 31.1 °F 34.0 °F 93% 30.02 in 10.0 mi SE 5.8 mph - N/A   Overcast
6:30 AM 35.1 °F 31.0 °F 33.1 °F 92% 29.98 in 9.0 mi SE 4.6 mph - N/A   Overcast
6:50 AM 35.6 °F 31.7 °F 33.8 °F 93% 29.98 in 8.0 mi SE 4.6 mph - N/A   Overcast
6:54 AM 36.0 °F 31.1 °F 34.0 °F 93% 30.01 in 8.0 mi SE 5.8 mph - N/A   Overcast
7:36 AM 36.0 °F 31.1 °F 34.0 °F 93% 29.97 in 5.0 mi SE 5.8 mph - N/A   Overcast
7:54 AM 36.0 °F 32.1 °F 35.1 °F 97% 29.99 in 7.0 mi South 4.6 mph - N/A   Overcast
8:54 AM 36.0 °F 33.3 °F 34.0 °F 93% 29.97 in 6.0 mi SSE 3.5 mph - N/A   Overcast
9:05 AM 36.0 °F 32.1 °F 35.1 °F 97% 29.96 in 6.0 mi South 4.6 mph - N/A   Overcast
9:17 AM 37.0 °F 32.4 °F 35.1 °F 93% 29.95 in 6.0 mi South 5.8 mph - N/A   Overcast
9:26 AM 37.0 °F 32.4 °F 35.1 °F 93% 29.94 in 5.0 mi South 5.8 mph - N/A   Overcast
9:35 AM 37.0 °F 32.4 °F 35.1 °F 93% 29.95 in 5.0 mi SSE 5.8 mph - N/A   Overcast
9:54 AM 37.9 °F 32.7 °F 36.0 °F 93% 29.96 in 6.0 mi SSE 6.9 mph - N/A   Overcast
10:03 AM 37.9 °F 33.5 °F 36.0 °F 93% 29.93 in 6.0 mi SSE 5.8 mph - 0.00 in Rain Light Rain
10:33 AM 37.9 °F 32.1 °F 37.0 °F 97% 29.90 in 5.0 mi SE 8.1 mph - 0.00 in   Overcast
10:42 AM 37.9 °F 33.5 °F 37.0 °F 97% 29.89 in 5.0 mi SE 5.8 mph - 0.00 in   Overcast
10:54 AM 39.0 °F 32.8 °F 37.9 °F 96% 29.90 in 4.0 mi SSE 9.2 mph - 0.00 in   Overcast
11:54 AM 43.0 °F 36.8 °F 39.9 °F 89% 29.83 in 8.0 mi South 11.5 mph - N/A   Overcast
12:39 PM 44.1 °F 38.1 °F 41.0 °F 89% 29.77 in 10.0 mi SSW 11.5 mph - N/A   Overcast
12:54 PM 45.0 °F 40.1 °F 41.0 °F 86% 29.76 in 10.0 mi South 9.2 mph - N/A   Overcast
1:54 PM 46.4 °F 38.7 °F 42.8 °F 87% 29.72 in 10.0 mi SSW 20.7 mph 28.8 mph N/A   Overcast
2:54 PM 46.0 °F 39.3 °F 43.0 °F 89% 29.74 in 7.0 mi SW 16.1 mph 21.9 mph 0.00 in Rain Light Rain
3:25 PM 46.0 °F 40.2 °F 43.0 °F 89% 29.70 in 10.0 mi SSW 12.7 mph - 0.01 in   Overcast
3:54 PM 46.9 °F - 43.0 °F 86% 29.72 in 10.0 mi SW 10.4 mph 20.7 mph 0.01 in   Overcast
4:36 PM 48.0 °F - 42.1 °F 80% 29.70 in 10.0 mi SW 17.3 mph 25.3 mph N/A   Overcast
4:54 PM 48.0 °F - 39.9 °F 74% 29.73 in 10.0 mi WSW 16.1 mph 33.4 mph N/A   Overcast
5:54 PM 44.1 °F 38.1 °F 39.9 °F 85% 29.78 in 10.0 mi West 11.5 mph 25.3 mph 0.02 in   Overcast
6:23 PM 42.1 °F 35.2 °F 36.0 °F 79% 29.78 in 10.0 mi West 12.7 mph 31.1 mph N/A   Mostly Cloudy
6:46 PM 41.0 °F 33.1 °F 35.1 °F 79% 29.78 in 10.0 mi West 15.0 mph 24.2 mph N/A   Overcast
6:54 PM 41.0 °F 32.8 °F 35.1 °F 79% 29.81 in 10.0 mi WNW 16.1 mph 24.2 mph N/A   Overcast
7:45 PM 35.1 °F 25.5 °F 32.0 °F 89% 29.83 in 10.0 mi NW 15.0 mph 23.0 mph 0.01 in Rain Light Rain
7:54 PM 35.1 °F 26.9 °F 32.0 °F 89% 29.86 in 10.0 mi NW 11.5 mph 20.7 mph 0.01 in   Overcast
8:21 PM 34.0 °F 25.0 °F 30.9 °F 89% 29.85 in 10.0 mi WNW 12.7 mph - N/A   Overcast
8:54 PM 33.1 °F 23.9 °F 28.9 °F 85% 29.89 in 10.0 mi WNW 12.7 mph 20.7 mph N/A   Overcast
9:54 PM 32.0 °F 23.6 °F 28.0 °F 85% 29.92 in 7.0 mi NW 10.4 mph 19.6 mph 0.00 in Snow Light Snow
10:45 PM 30.9 °F 22.8 °F 27.0 °F 85% 29.92 in 1.8 mi NW 9.2 mph - 0.00 in Snow Light Snow
10:54 PM 30.0 °F 22.4 °F 27.0 °F 88% 29.94 in 1.5 mi NW 8.1 mph 20.7 mph 0.00 in Snow Light Snow
11:00 PM 30.0 °F 21.7 °F 27.0 °F 88% 29.92 in 3.0 mi NW 9.2 mph - 0.00 in Snow Light Snow
11:54 PM 30.9 °F 23.5 °F 24.1 °F 76% 29.97 in 10.0 mi WNW 8.1 mph 18.4 mph 0.00 in   Overcast